DELTA 1 DEB, 7166

Orbit data source: Space-Track

DELTA 1 DEB, 7166 is space debris in SSO originally from a launch on Tue, 06 Nov 1973 UTC launched from the Air Force Western Test Range (AFWTR). Debris objects in space refer to the collection of defunct objects orbiting the Earth. Examples of debris include non-operational satellites, rocket bodies, and fragments generated from explosions, collisions, or faulty payload assembly.

Loading next visibility...
Identifier
7166, 1973-086EE
Orbit
SSO
Country
Flag of USUS
Related business
Manufacturer
Unknown
Mission
Spacecraft
Bus & Motor
Unknown
Mass
Unknown
Launch date (UTC)
1973-11-06 (52 years ago)
Launch vehicle
Unknown
Launch site
Air Force Western Test Range (AFWTR)
Object type
Payload
Rocket body
Debris
Shape & HBR
Unknown shape, 0.1 m
Radar Cross Section
Small (<0.1 m²)

Expand to show TLE details & history
Last TLE update: 16 hours ago

TLE from 16 hours ago
0 DELTA 1 DEB
1 07166U 73086EE  25291.98755590  .00000105  00000-0  11097-2 0  9997
2 07166 102.2383 291.3335 0014708 353.2273  66.8189 12.41438015350681
Epoch: 2025-10-18T23:42Z
TLE epoch observation values (Epoch: 2025-10-18T23:42:04.829Z)
Latitude
58.09374°
Longitude
-112.1822°
Altitude
1,505.542 km
Speed
7.119 km/s
True Right ascension
18h 04m 11s
True Declination
57° 57' 14"
Sunlit
Object was in daylight at epoch
Visualization orbit readout
Latitude
Unknown
Longitude
Unknown
Altitude
Unknown
Speed
Unknown
Apparent Right ascension
Unknown
Apparent Declination
Unknown
Sunlit
N/A
Visualization observer readout
Local Sidereal Time
10:50:53
Azimuth
Unknown
Elevation
Unknown
Doppler factor
Unknown
Orbital elements
Apogee altitude
1,509.685 km
Perigee altitude
1,486.516 km
Semi-major axis
7,876.237 km
Eccentricity
0.00147
Inclination
102.2383°
RAAN
291.3335°
Arg. of periapsis
353.2273°
True anomaly
66.97395°
Mean anomaly
66.8189°
Eccentric anomaly
66.89641°
Mean motion
3.10502 °/min
Orbital period
115.94 mins
BSTAR
0.0011097
Loading maneuver chart data...
Computing Atmospheric mass density...
Loading historical data...
Loading historical data...
Loading historical data...
Loading historical data...
Loading historical data...
Loading historical data...
Loading historical data...

Documentation

Showing up to 5 results
|